Lid_Strength_Index
8 10 11 10 9 8 7 6 5 4 3 6 5 2 2 0 -0 -0 -1 -1 -1 -1 -1 -1 -1 -1 -1 -1 -1 -1 -1 -1
10 10 9 9 8 7 7 6 6 4 5 5 2 2 1 -0 -0 -0 -0 -1 -1 -1 -1 -1 -1 -1 -1 -1 -1 -1 -1 -1
9 10 9 8 8 8 8 7 6 4 5 5 2 0 0 0 -0 0 -0 -1 -1 -1 -1 -1 -1 -1 -1 -1 -1 -1 -1 -1
9 9 9 8 8 7 6 7 6 5 4 4 1 1 1 0 -0 0 0 -1 -1 -1 -1 -1 -1 -1 -1 -1 -1 -1 -1 -1
8 8 8 8 6 8 7 6 6 4 5 3 2 1 0 -0 -0 0 -0 -1 -1 -1 -1 -1 -1 -1 -1 -1 -1 -1 -1 -1
7 8 8 5 6 6 6 6 4 3 5 5 2 2 1 0 0 1 -0 -0 -1 -1 -1 -1 -1 -1 -1 -1 -1 -1 -1 -1
8 8 7 5 6 4 4 5 5 4 3 2 1 2 3 1 1 1 0 -0 -1 -1 -1 -1 -1 -1 -1 -1 -1 -1 -1 -1
5 5 6 5 5 5 6 6 6 4 2 1 2 2 3 3 2 1 1 0 -0 -1 -1 -1 -1 -2 -1 -1 -2 -2 -2 -2
5 4 4 5 5 4 5 6 6 5 4 3 3 3 4 3 2 1 0 0 -0 -1 -1 -1 -1 -1 -1 -1 -1 -1 -2 -2
4 4 5 5 4 5 5 5 5 4 4 3 3 4 4 4 2 2 1 0 0 -0 -0 -1 -1 -1 -1 -1 -1 -1 -1 -2
5 4 4 4 5 5 5 4 6 5 5 4 4 4 4 3 3 2 2 1 -0 -0 -0 -0 -0 -1 -1 -1 -1 -1 -1 -2
5 5 5 6 6 6 5 5 6 5 4 4 4 5 5 5 3 1 1 1 -0 -0 0 -0 0 -0 -0 -1 -1 -1 -1 -1
6 5 6 5 8 8 5 6 6 7 6 4 3 3 5 6 5 4 3 1 1 -0 -1 -0 -1 -0 -0 -1 -1 -1 -1 -2
7 7 6 7 9 7 6 6 7 7 8 6 5 4 5 6 5 4 4 1 1 3 -0 -1 0 -0 -1 -1 -1 -1 -1 -1
9 7 7 7 9 6 6 6 7 7 7 7 6 5 4 6 5 5 3 2 3 -1 1 -0 -0 -0 -1 -1 -0 -1 -1 -1
10 8 7 8 8 7 6 6 7 6 7 7 7 6 4 5 6 5 3 2 2 2 1 -1 -1 -0 -0 -0 -0 -1 -1 -1
8 7 8 8 8 7 6 6 7 6 6 6 6 6 5 5 5 4 2 2 2 2 1 1 0 1 1 1 1 0 -0 -1
8 7 8 8 8 7 6 6 6 6 5 5 5 6 6 5 4 4 3 3 2 2 2 1 0 0 0 0 -0 0 -0 -1
10 8 8 8 9 7 6 6 5 5 5 4 5 5 6 5 4 3 4 3 3 2 2 1 1 1 -0 0 1 1 0 0
9 10 12 8 13 9 7 7 6 6 5 4 4 4 4 3 4 4 3 3 3 3 2 2 1 1 1 3 2 2 1 0